Weather History for White Plains, NY

Change the Weather History Date:

Sunday, March 24, 2013

  Actual Average Record
Temperature  
Mean Temperature 36 °F -  
Max Temperature 46 °F 48 °F 72 °F (1988)
Min Temperature 28 °F 32 °F 18 °F (2014)
Degree Days  
Heating Degree Days 28    
Moisture  
Dew Point 19 °F    
Average Humidity 49    
Maximum Humidity 64    
Minimum Humidity 36    
Precipitation  
Precipitation 0.00 in - - ()
Sea Level Pressure  
Sea Level Pressure 29.83 in    
Wind  
Wind Speed 8 mph (NW)    
Max Wind Speed 14 mph    
Max Gust Speed 20 mph    
Visibility 10 miles    
Events      
Averages and records for this station are not official NWS values.
T = Trace of Precipitation, MM = Missing Value Source: NWS Daily Summary

Daily Weather History Graph

Daily Weather History Graph

Search for Another Location

Airport:

Trip Planner

Search our weather history database for the weather conditions in past years. The results will help you decide how hot, cold, wet, or windy it might be!

Date:

Astronomy

Mar. 24, 2013 Rise Set
Actual Time 6:51 AM EDT 7:11 PM EDT
Civil Twilight 6:23 AM EDT 7:39 PM EDT
Nautical Twilight 5:51 AM EDT 8:11 PM EDT
Astronomical Twilight 5:18 AM EDT 8:44 PM EDT
Moon 4:36 PM EDT (3/24) 5:01 AM EDT (3/24)
Length of Visible Light 13h 15m
Length of Day
12h 20m
Waxing Gibbous, 91% of the Moon is Illuminated
Mar 24
Waxing Gibbous
Mar 27
Full
Apr 3
Last Quarter
Apr 10
New
Apr 18
First Quarter

Hourly Weather History & Observations

Time (EDT) Temp. Windchill Dew Point Humidity Pressure Visibility Wind Dir Wind Speed Gust Speed Precip Events Conditions
12:56 AM 33.1 °F 24.9 °F 15.1 °F 48% 29.91 in 10.0 mi NW 10.4 mph - N/A   Clear
1:56 AM 30.9 °F 25.2 °F 16.0 °F 54% 29.91 in 10.0 mi West 5.8 mph - N/A   Clear
2:56 AM 32.0 °F 26.4 °F 17.1 °F 54% 29.88 in 10.0 mi WNW 5.8 mph - N/A   Clear
3:56 AM 30.0 °F 25.2 °F 18.0 °F 61% 29.89 in 10.0 mi West 4.6 mph - N/A   Clear
4:56 AM 30.0 °F 25.2 °F 18.0 °F 61% 29.89 in 10.0 mi West 4.6 mph - N/A   Clear
5:56 AM 30.0 °F 22.4 °F 19.0 °F 64% 29.90 in 10.0 mi WNW 8.1 mph - N/A   Clear
6:56 AM 28.9 °F 22.8 °F 18.0 °F 64% 29.90 in 10.0 mi West 5.8 mph - N/A   Clear
7:56 AM 32.0 °F 24.2 °F 19.9 °F 61% 29.92 in 10.0 mi NW 9.2 mph - N/A   Clear
8:56 AM 35.1 °F 25.9 °F 19.9 °F 54% 29.94 in 10.0 mi NW 13.8 mph - N/A   Clear
9:56 AM 37.0 °F 28.9 °F 19.0 °F 48% 29.92 in 10.0 mi NW 12.7 mph - N/A   Clear
10:56 AM 39.0 °F 32.3 °F 19.0 °F 45% 29.90 in 10.0 mi NW 10.4 mph - N/A   Clear
11:56 AM 41.0 °F 34.3 °F 19.9 °F 43% 29.86 in 10.0 mi NW 11.5 mph 17.3 mph N/A   Clear
12:56 PM 42.1 °F 37.1 °F 19.0 °F 40% 29.82 in 10.0 mi NNW 8.1 mph 19.6 mph N/A   Clear
1:56 PM 44.1 °F 38.6 °F 19.0 °F 37% 29.81 in 10.0 mi NW 10.4 mph - N/A   Clear
2:56 PM 44.1 °F 41.5 °F 19.0 °F 37% 29.76 in 10.0 mi Variable 4.6 mph 17.3 mph N/A   Clear
3:56 PM 45.0 °F 39.3 °F 19.0 °F 36% 29.73 in 10.0 mi NNE 11.5 mph 17.3 mph N/A   Clear
4:56 PM 45.0 °F 41.2 °F 19.9 °F 37% 29.73 in 10.0 mi NE 6.9 mph - N/A   Clear
5:56 PM 43.0 °F 37.7 °F 19.9 °F 40% 29.73 in 10.0 mi North 9.2 mph - N/A   Clear
6:56 PM 42.1 °F 37.7 °F 19.9 °F 41% 29.72 in 10.0 mi North 6.9 mph - N/A   Clear
7:56 PM 39.9 °F 36.7 °F 21.0 °F 47% 29.76 in 10.0 mi NW 4.6 mph - N/A   Clear
8:56 PM 39.9 °F 35.8 °F 21.0 °F 47% 29.76 in 10.0 mi North 5.8 mph - N/A   Clear
9:56 PM 37.9 °F 32.7 °F 21.9 °F 53% 29.76 in 10.0 mi NNW 6.9 mph - N/A   Clear
10:56 PM 37.9 °F 32.7 °F 21.0 °F 51% 29.74 in 10.0 mi North 6.9 mph - N/A   Clear
11:56 PM 39.0 °F 35.7 °F 21.0 °F 49% 29.72 in 10.0 mi North 4.6 mph - N/A   Clear